Simultaneous Nadir Overpasses (SNOs) Predictions

Prediction of SNOs between LANDSAT-8 and NOAA-19 Satellite Orbit:

Table of predicted SNOs for the next 14.0 days since TLE Epoch: 3/15/2025
Index Date (LANDSAT-8) Time (LANDSAT-8) Lat,Lon (LANDSAT-8) SZA (LANDSAT-8 ) Date (NOAA-19) Time (NOAA-19) Lat,Lon (NOAA-19) SZA (NOAA-19 ) Distance(km) Time Diff (sec)
1 03/16/2025 23:30:01 79.38,-149.66 81.36 03/16/2025 23:29:12 79.38,-149.69 81.34 0.66 49
2 03/17/2025 00:19:24 -79.54, 19.04 98.44 03/17/2025 00:20:03 -79.53, 18.92 98.45 2.66 39
3 03/19/2025 06:42:34 -79.43, -77.47 99.47 03/19/2025 06:42:20 -79.44, -77.40 99.46 1.82 14
4 03/21/2025 13:05:44 -79.30,-174.15 100.54 03/21/2025 13:04:38 -79.31,-174.04 100.54 2.74 66
5 03/21/2025 13:55:05 79.48, -5.29 79.70 03/21/2025 13:55:34 79.49, -5.23 79.72 1.37 29
6 03/23/2025 20:18:14 79.35,-101.91 78.65 03/23/2025 20:17:52 79.36,-101.87 78.65 1.29 22
7 03/23/2025 21:07:37 -79.52, 66.81 101.15 03/23/2025 21:08:42 -79.51, 66.68 101.15 2.75 65
8 03/26/2025 02:41:23 79.20, 161.30 77.56 03/26/2025 02:40:11 79.19, 161.18 77.52 2.74 72
9 03/26/2025 03:30:45 -79.40, -29.74 102.18 03/26/2025 03:30:59 -79.39, -29.85 102.20 2.46 14
10 03/28/2025 09:53:52 -79.30,-126.20 103.20 03/28/2025 09:53:15 -79.30,-126.16 103.21 0.87 37



Historial Predications of SNOs between LANDSAT-8 and NOAA-19
